This demonstration page uses our WeatherBlox Daily Observations layout. Learn more.

Left ArrowRight Arrow

36.19886, -115.1175

Hourly Observations for November 23, 2021

Temp ( °F °C ) Dew Point ( °F °C ) Humidity (%) Winds ( mph kmh ) Pressure ( in mb ) Visibility ( mi km ) Precip ( " mm )
12:53 am 00:53 Clear 52 11.1 18 -7.8 26 26 WNW 3 6 30.07 1018 10 16 0.00 0.00
1:53 am 01:53 Clear 49 9.4 19 -7.2 31 31 NW 5 7 30.06 1018 10 16 0.00 0.00
2:53 am 02:53 Clear 51 10.6 20 -6.7 29 29 Calm 30.04 1017 10 16 0.00 0.00
3:53 am 03:53 Clear 52 11.1 20 -6.7 28 28 NW 5 7 30.02 1017 10 16 0.00 0.00
4:53 am 04:53 Clear 53 11.7 19 -7.2 26 26 WNW 6 9 30.02 1017 10 16 0.00 0.00
5:53 am 05:53 Clear 53 11.7 18 -7.8 25 25 NNW 7 11 30.03 1017 10 16 0.00 0.00
6:53 am 06:53 Sunny 52 11.1 17 -8.3 25 25 Calm 30.04 1017 10 16 0.00 0.00
7:53 am 07:53 Sunny 55 12.8 19 -7.2 24 24 N 3 6 30.03 1017 10 16 0.00 0.00
8:53 am 08:53 Sunny 57 13.9 17 -8.3 21 21 Calm 30.02 1017 10 16 0.00 0.00
9:53 am 09:53 Sunny 60 15.6 16 -8.9 18 18 SSE 5 7 29.99 1016 10 16 0.00 0.00
10:53 am 10:53 Sunny 63 17.2 15 -9.4 15 15 SE 5 7 29.97 1015 10 16 0.00 0.00
11:53 am 11:53 Sunny 63 17.2 15 -9.4 15 15 ESE 3 6 29.94 1014 10 16 0.00 0.00
12:53 pm 12:53 Sunny 67 19.4 15 -9.4 13 13 ENE 8 13 29.90 1013 10 16 0.00 0.00
1:53 pm 13:53 Sunny 68 20 16 -8.9 13 13 NE 3 6 29.89 1012 10 16 0.00 0.00
2:53 pm 14:53 Sunny 70 21.1 17 -8.3 13 13 NE 6 9 29.87 1012 10 16 0.00 0.00
3:53 pm 15:53 Sunny 68 20 17 -8.3 14 14 NW 5 7 29.87 1012 10 16 0.00 0.00
4:53 pm 16:53 Clear 65 18.3 17 -8.3 16 16 Calm 29.88 1012 10 16 0.00 0.00
5:53 pm 17:53 Clear 61 16.1 21 -6.1 21 21 WSW 5 7 29.90 1012 10 16 0.00 0.00
6:53 pm 18:53 Clear 57 13.9 21 -6.1 25 25 NNW 8 13 29.91 1013 10 16 0.00 0.00
7:53 pm 19:53 Clear 54 12.2 18 -7.8 24 24 NW 7 11 29.91 1013 10 16 0.00 0.00
8:53 pm 20:53 Clear 54 12.2 21 -6.1 28 28 W 5 7 29.92 1013 10 16 0.00 0.00
9:53 pm 21:53 Clear 59 15 12 -11.1 15 15 NW 14 22 29.92 1013 10 16 0.00 0.00
10:53 pm 22:53 Clear 60 15.6 11 -11.7 14 14 NNW 13 20 29.93 1014 10 16 0.00 0.00
11:53 pm 23:53 Clear 59 15 8 -13.3 13 13 NW 18 30 29.94 1014 10 16 0.00 0.00

Powered by AerisWeather